Regional Weather Roundup
Issued by NWS

Home | Current Version | Previous Version | Text Only | Print | Product List | Glossary Off
Versions: 1 2 3 4 5 6 7 8 9 10 11 12 13 14 15 16 17 18 19 20 21 22 23 24 25 26 27 28 29 30 31 32 33 34 35 36 37 38 39 40 41 42 43 44 45 46 47 48 49 50

000
ASUS45 KBOU 311607
RWRCO

WEATHER ROUNDUP FOR COLORADO
NATIONAL WEATHER SERVICE DENVER/BOULDER CO
1000 AM MDT THU JUL 31 2014

NOTE: "FAIR" INDICATES FEW OR NO CLOUDS BELOW 12000 FEET WITH NO
SIGNIFICANT WEATHER AND/OR OBSTRUCTIONS TO VISIBILITY.

COZ001>005-013-030-031-311700-
...NORTHWEST COLORADO...

CITY           SKY/WX    TMP DP  RH WIND       PRES   REMARKS
CRAIG          CLOUDY    57  55  93 NW7       30.32S
HAYDEN         PTSUNNY   61  48  63 CALM      30.33S
MEEKER         PTSUNNY   63  54  72 CALM      30.32F
MOUNT WERNER   NOT AVBL
STEAMBOAT SPGS SUNNY     61  50  67 CALM      30.34F
WALDEN         SUNNY     55  45  67 CALM      30.42S
$$

COZ006>008-011-311700-
...WEST CENTRAL VALLEYS...

CITY           SKY/WX    TMP DP  RH WIND       PRES   REMARKS
GRAND JUNCTION SUNNY     72  55  55 CALM      30.20F
MONTROSE       SUNNY     71  55  56 CALM      30.27F
EAGLE          PTSUNNY   63  55  77 CALM      30.35F
RIFLE          MOSUNNY   69  54  58 NE3       30.26S
DELTA          SUNNY     73  57  56 CALM      30.23F
NUCLA          PTSUNNY   70  52  52 CALM      30.31R
$$

COZ017>023-064>068-311700-
...SOUTHWEST COLORADO...

CITY           SKY/WX    TMP DP  RH WIND       PRES   REMARKS
DURANGO        PTSUNNY   68  55  63 VRB6      30.32F
CORTEZ         SUNNY     76  51  41 VRB5      30.24S
PAGOSA SPRINGS CLOUDY    65  51  60 SW3       30.40S
TELLURIDE      NOT AVBL
WOLF CREEK PAS NOT AVBL
$$

COZ009-010-012-014-032>034-037-058>063-311700-
...CENTRAL COLORADO...

CITY           SKY/WX    TMP DP  RH WIND       PRES   REMARKS
ASPEN          MOSUNNY   61  51  70 N5        30.37F
BUENA VISTA    PTSUNNY   60  50  68 NE5       30.42S
COPPER MTN     HAZE      48  43  81 W10       30.64S VSB<1/4
BERTHOUD PASS  FOG       37  36  93 MISG      30.68S VSB<1/4
COTTONWOOD PAS FOG       54  50  87 CALM      30.51F VSB<1/4
GUNNISON       SUNNY     63  48  59 CALM      30.39F
KREMMLING      CLOUDY    57  48  72 CALM      30.40F
LEADVILLE      MOSUNNY   51  45  79 CALM      30.50S
MONARCH PASS   PTSUNNY   48  46  93 W8        30.74S
SALIDA         CLOUDY    60  53  77 CALM      30.46F
SUNLIGHT       PTSUNNY   55  50  82 CALM      30.58R
WILKERSON PASS RAIN      45  43  93 E5        30.62S VSB<1/4
$$

COZ069>075-311700-
...SAN LUIS VALLEY/SANGRE DE CRISTO MOUNTAINS...

CITY           SKY/WX    TMP DP  RH WIND       PRES   REMARKS
ALAMOSA        PTSUNNY   62  54  74 N5        30.38S
LA VETA PASS   FOG       48  46  93 CALM      30.54S VSB<1/4
SAGUACHE       CLOUDY    61  52  72 SE3       30.41S
$$

COZ035-036-038>040-311700-
...NORTHERN COLORADO FRONT RANGE...

CITY           SKY/WX    TMP DP  RH WIND       PRES   REMARKS
DENVER INTL AP CLOUDY    63  57  81 SW10      30.32R
DMNS CITY PARK   N/A     63  56  79 S3        30.32S
AURORA         CLOUDY    60  55  84 W3        30.34S
FRONT RANGE AP PTSUNNY   64  57  77 SW8       30.33S
ERIE MUNI ARPT CLOUDY    64  55  71 CALM      30.31S
BOULDER MUN AP CLOUDY    63  59  88 S3        30.30F
CENTENNIAL     LGT RAIN  58  55  90 S6        30.34S FOG
BROOMFIELD     PTSUNNY   63  55  77 W3        30.33S
FORT COLLINS   PTSUNNY   66  54  63 S5        30.30F
LONGMONT       CLOUDY    68  56  66 S3        30.31F HAZE
$$

COZ041-046-047-076>085-087-088-311700-
...PIKES PEAK/PALMER DIVIDE AND SOUTHERN FOOTHILLS...

CITY           SKY/WX    TMP DP  RH WIND       PRES   REMARKS
COLO. SPRINGS  LGT RAIN  57  54  89 SE5       30.37R FOG
A. F. ACADEMY  LGT RAIN  55  55 100 W1        30.37S
ELLICOTT       CLOUDY    57  54  89 S3        30.36R
FALCON         CLOUDY    55  53  94 CALM      30.40S FOG
FORT CARSON    CLOUDY    58  55  91 E5        30.35R
LIMON          CLOUDY    62  54  74 SW8       30.32S
MONUMENT HILL  CLOUDY    54  52  94 NW6       30.39R FOG
TRINIDAD       MOSUNNY   65  54  67 E7        30.31S
$$

COZ042>045-048>051-090-091-311700-
...NORTHEAST COLORADO...

CITY           SKY/WX    TMP DP  RH WIND       PRES   REMARKS
GREELEY ARPT   NOT AVBL
AKRON          MOSUNNY   70  53  54 W8        30.27F
BURLINGTON     MOSUNNY   71  52  50 W8        30.27S
WRAY             N/A     77  52  41 W10       30.23S
STERLING       MOSUNNY   77  63  61 SW7       30.23S
HOLYOKE        SUNNY     79  55  44 SW8       30.22R
FORT MORGAN    MOSUNNY   70  56  60 SW7       30.28S
$$

COZ086-089-092>099-311700-
...SOUTHEAST COLORADO...

CITY           SKY/WX    TMP DP  RH WIND       PRES   REMARKS
PUEBLO         CLOUDY    64  59  83 E8        30.29S
LA JUNTA       CLOUDY    65  55  70 E5        30.29R
LAMAR          CLOUDY    67  60  78 CALM      30.24F
SPRINGFIELD      N/A     66  52  60 CALM      30.28F
$$


USA.gov is the U.S. government's official web portal to all federal, state and local government web resources and services.